Forside
METAR-TAF:

METAR-TAF

Lufthavne :

Monroe Municipal Airport

Monroe, Wisconsin, USA

Breddekreds: 42-36-54N, længdekreds: 089-35-27W, højde: 331 m

Aktuelle vejr

Denne rapport blev lavet for 23 minutter siden, kl. 06:55 UTC
Vind 10 kt fra sydsydvest
Temperatur 3°C
Fugtighed 81%
Tryk 1014 hPa
Sigt: 16.1 km
skyfri

METAR: KEFT 290655Z AUTO 20010KT 10SM CLR 03/00 A2995 RMK AO2 T00301003

Tid: 01:18 (07:18 UTC)


TAF: fraværende

Vejrobservationer og prognoser fra mere end 4000 lufthavne (METAR og TAF).

De gule og røde prikker repræsenterer de meteorologiske stationer.

Flyt musen over at se navnet på stationen.

Så klik over at se vejr observationer og prognoser.

At skifte det kort: Klik på de grønne knapper med et sort kors for at zoome ind; på den grønne knap med en bindestreg for at zoome ud; eller på de grønne pile for tilstødende kort.


METAR-TAF: